GFSSE_925_thetae_150.txt.gz
Theta_e
351 348 341 350 351 349 343 343 346 345 344 343 346 346 347 347 345 348 348 348 347 349 348 349 349 348 348 349 347 346 345 344 343 344 344 344 345 346 346 346 344 345 342
350 349 341 348 350 350 348 348 347 346 344 338 343 346 347 346 347 347 348 348 348 348 348 348 347 347 346 346 347 346 345 344 344 341 342 343 344 344 346 344 345 345 342
350 349 344 344 349 350 350 350 348 345 343 336 343 346 345 346 346 347 347 347 347 346 348 348 347 345 346 346 345 344 344 341 341 340 341 343 344 344 345 344 344 344 345
349 350 347 341 347 349 350 349 348 345 343 339 343 345 343 346 346 346 345 347 346 344 346 346 344 344 342 344 344 344 342 339 339 339 339 341 343 344 344 344 344 344 344
349 349 348 343 342 346 347 348 347 342 341 343 343 344 347 345 347 345 343 345 347 346 342 342 341 341 341 342 343 343 340 338 338 338 338 339 341 343 343 342 342 343 343
349 349 349 347 339 343 347 347 344 345 344 343 344 345 344 346 344 344 344 346 345 345 340 340 340 340 340 342 342 340 337 337 336 336 337 338 340 342 342 342 341 341 341
350 349 349 348 341 340 344 345 346 347 345 344 343 344 345 345 345 342 343 344 344 344 343 343 341 340 342 341 340 336 336 335 334 334 334 335 338 341 341 341 341 341 341
350 350 350 348 344 342 344 343 346 348 346 344 342 342 344 344 344 342 342 342 343 343 342 343 339 339 340 340 338 334 334 332 332 332 331 332 334 339 339 339 339 339 339
351 351 349 347 346 343 344 346 345 345 346 344 342 342 343 343 343 343 341 340 343 342 342 338 338 340 339 338 333 330 329 329 330 330 330 330 332 335 337 337 337 337 337
347 348 347 346 346 345 344 344 344 341 343 343 340 339 340 341 341 341 341 342 341 340 338 337 335 337 336 334 331 328 327 327 328 328 329 329 332 333 333 333 334 334 334
345 345 346 345 346 344 342 343 343 339 340 341 338 338 339 340 340 339 339 341 341 338 336 335 334 333 331 330 326 324 326 326 326 327 328 328 330 331 331 331 331 331 332
342 342 342 343 344 345 344 343 342 342 339 340 338 338 339 340 339 338 337 339 339 336 336 334 333 332 329 327 326 324 326 326 326 326 327 328 328 328 329 328 328 328 327
340 340 342 344 344 343 343 342 342 341 339 339 338 338 337 339 338 337 336 339 340 335 334 334 332 330 328 326 325 325 325 325 325 325 326 327 328 327 327 327 327 326 326
331 333 337 341 343 342 343 343 342 341 340 339 338 337 336 336 337 335 335 335 336 333 333 333 332 330 327 326 325 324 324 324 324 325 325 326 327 327 326 326 326 326 326
322 322 325 329 337 341 342 342 341 340 340 338 338 336 335 334 332 333 333 333 334 334 333 333 332 330 327 325 324 323 324 323 323 324 325 325 326 327 326 326 326 326 325
322 322 322 330 334 339 340 341 340 339 338 337 337 336 334 330 330 326 326 327 331 333 333 333 331 331 327 325 324 324 323 323 323 324 324 324 325 326 326 326 326 325 325
319 320 321 322 330 329 336 338 338 336 337 338 336 331 328 332 330 326 325 327 328 333 332 331 330 327 326 324 323 323 323 323 323 323 324 324 324 325 326 325 325 324 324
321 320 320 322 324 329 334 330 333 335 336 334 334 331 334 332 330 325 326 328 331 328 332 331 324 325 325 324 323 323 323 323 323 323 324 324 323 324 324 324 324 324 323
323 322 321 321 322 324 328 329 330 333 331 331 332 332 333 332 328 326 325 327 329 329 331 328 322 325 324 323 323 323 322 323 322 323 323 322 322 323 323 323 323 323 323
323 323 323 321 321 321 323 323 329 331 332 332 332 330 329 328 327 322 324 326 325 327 327 325 321 324 324 323 322 322 322 322 322 321 321 321 321 321 320 321 321 321 322
323 324 324 322 321 321 322 324 328 330 331 333 333 330 329 329 325 326 326 326 330 328 326 325 321 324 322 322 321 321 322 321 320 319 319 319 319 318 318 319 319 320 320
325 326 325 322 321 321 321 322 325 327 330 331 333 334 334 332 332 332 324 325 329 327 326 324 321 320 320 322 321 319 316 318 320 320 320 317 316 316 317 316 315 315 315
325 327 327 325 322 321 321 323 325 328 329 329 332 333 333 332 332 331 329 324 329 327 326 324 322 321 319 320 321 319 314 318 316 319 321 318 317 317 317 315 312 312 312
325 326 327 326 326 322 321 325 326 329 329 330 331 331 333 332 332 332 330 328 327 326 324 323 321 321 319 317 318 318 318 317 313 313 317 318 318 317 317 317 314 313 312
324 325 327 326 326 326 324 326 327 329 329 330 329 329 328 330 330 333 332 331 328 324 322 322 322 321 321 318 319 317 315 317 315 312 311 310 312 313 314 316 314 313 313
324 324 325 328 328 328 327 328 328 328 327 327 327 325 327 327 327 329 331 332 329 323 321 322 321 321 320 319 319 318 315 315 313 313 309 309 310 310 310 310 311 312 312

GFSSE_925_thetae_153.txt.gz
Theta_e
350 346 342 350 351 349 349 348 349 347 345 343 343 344 347 345 347 348 348 346 349 346 348 346 348 348 347 347 345 344 343 344 344 344 344 345 346 346 346 344 342 345 345
349 346 341 350 351 350 349 349 348 347 343 343 343 345 342 344 345 347 348 348 345 347 345 346 348 347 347 347 346 345 344 344 343 343 343 343 343 345 345 345 341 343 346
348 347 340 347 349 350 348 350 349 347 342 341 346 345 344 342 346 347 346 348 344 348 346 347 347 347 346 345 344 343 343 342 340 341 342 343 344 345 345 344 343 340 342
349 348 341 345 347 348 349 348 347 347 341 341 347 345 346 343 343 347 347 343 343 346 347 346 346 346 345 344 343 343 342 339 338 339 341 342 343 344 344 344 344 344 340
349 348 344 340 345 346 345 346 346 346 343 342 346 345 346 346 346 344 343 342 345 345 345 345 343 344 344 342 342 342 338 337 337 338 339 341 342 343 343 342 343 343 343
349 349 347 340 341 345 345 346 346 344 343 343 345 346 346 346 347 343 342 345 345 344 344 344 343 343 342 343 342 339 336 335 336 337 338 340 341 342 342 342 342 342 343
349 348 348 345 341 344 346 347 344 344 344 343 345 344 345 345 345 343 342 345 343 343 343 343 343 343 343 342 340 336 334 333 333 334 337 338 339 341 341 341 341 341 342
348 349 349 348 344 339 345 346 345 346 345 344 344 344 343 344 344 344 344 343 343 343 343 343 342 342 342 340 338 334 333 331 331 331 332 336 339 340 340 339 339 339 340
350 349 349 347 345 341 340 342 343 347 345 344 343 343 341 342 342 343 342 343 343 343 342 341 341 341 339 337 334 330 330 330 329 329 330 333 336 338 338 336 337 337 337
350 350 347 347 346 343 341 342 341 343 343 344 342 341 339 342 340 340 341 342 342 341 341 341 340 340 337 334 332 329 329 328 328 329 329 331 333 335 335 336 335 336 336
348 348 346 346 345 345 343 343 342 342 341 341 340 340 340 341 342 341 341 341 341 340 340 337 337 337 334 332 330 327 326 327 327 327 328 331 333 333 333 331 331 332 332
344 345 346 345 344 345 344 343 342 342 339 340 339 338 338 339 340 339 338 338 340 337 338 335 337 334 329 326 326 325 326 326 327 326 327 327 329 330 329 329 328 328 328
340 342 343 343 343 344 344 343 342 342 340 339 339 338 337 339 338 338 337 338 336 335 335 336 334 329 326 325 325 326 326 325 326 326 327 327 327 328 327 327 327 327 327
336 337 340 341 343 343 342 342 341 340 340 339 338 338 337 338 337 336 337 338 335 335 334 333 332 328 326 325 324 324 325 324 324 326 326 326 326 326 327 327 327 327 327
330 330 328 332 338 341 341 341 340 341 341 339 338 338 337 337 337 335 334 334 334 333 334 332 330 327 325 325 324 323 324 324 324 325 325 325 325 326 326 327 327 326 326
322 322 324 326 330 336 339 340 341 340 339 338 337 337 335 335 333 326 326 329 333 333 333 332 329 327 325 324 324 323 323 323 323 324 324 325 326 327 327 326 326 326 325
319 319 320 324 333 333 336 337 338 339 336 335 335 335 334 332 328 326 325 328 331 332 332 332 329 327 325 324 323 323 323 323 323 323 324 324 325 325 326 325 325 325 324
320 320 320 320 328 335 331 329 333 336 334 335 333 333 334 331 329 327 327 326 327 330 331 332 325 325 324 324 323 323 322 323 323 323 323 324 324 324 324 325 325 324 324
322 321 321 320 321 324 332 330 329 330 331 332 333 332 333 331 330 328 328 325 327 330 330 331 323 324 323 323 322 323 322 322 323 323 323 323 323 323 324 323 323 323 323
322 323 322 321 321 322 327 329 327 326 328 330 333 331 330 330 329 329 326 326 330 328 328 329 323 324 323 323 322 322 322 322 323 323 323 322 322 323 322 322 322 322 322
322 322 323 323 321 320 321 323 326 325 326 327 328 328 329 329 330 325 326 326 328 328 328 328 323 324 322 322 321 321 321 322 322 322 321 321 321 321 321 321 321 321 321
324 325 325 324 321 320 321 322 324 324 325 325 327 328 327 322 327 325 322 325 327 326 326 327 324 321 322 322 321 319 319 319 320 320 320 320 319 319 319 319 319 319 319
324 325 327 325 323 320 320 320 322 325 326 325 327 328 325 322 327 327 323 326 327 327 326 326 322 321 320 321 320 320 317 320 318 319 319 319 318 317 317 317 317 316 315
324 325 326 326 325 326 322 321 322 325 324 328 327 328 329 330 329 328 326 327 328 327 326 325 321 320 320 320 320 320 321 319 318 316 318 318 317 317 317 316 313 313 312
324 324 326 326 325 323 321 322 325 326 327 328 328 328 330 328 329 328 330 327 327 327 326 325 322 320 320 320 319 317 316 320 317 313 313 311 315 316 316 316 316 313 312
323 323 325 327 327 326 325 326 326 327 327 326 326 327 326 327 329 330 330 329 328 327 325 325 323 320 319 320 318 317 316 317 313 314 309 309 311 311 312 314 316 315 313

GFSSE_925_thetae_156.txt.gz
Theta_e
349 346 346 348 349 347 345 349 347 345 346 345 346 344 343 347 347 347 347 348 349 347 346 346 348 348 346 345 343 343 344 345 346 344 344 344 345 346 342 344 344 342 340
347 345 345 349 350 350 347 346 348 347 342 341 343 344 341 345 347 347 346 347 344 345 345 347 348 348 347 346 344 342 343 344 344 343 343 343 343 344 343 339 340 339 339
348 344 340 350 350 349 348 348 348 346 342 344 341 345 344 346 345 347 347 344 344 345 348 346 347 347 346 345 343 343 343 343 341 342 343 344 344 345 345 340 339 338 339
347 346 338 346 346 348 349 348 348 346 341 342 345 346 345 346 346 346 345 344 343 347 346 347 346 345 344 343 342 342 342 339 339 341 342 342 343 345 344 345 343 339 340
348 347 340 345 346 345 345 346 346 345 343 343 346 345 345 344 345 345 343 344 342 346 346 345 344 344 342 341 341 341 340 337 338 340 341 341 341 343 343 342 343 340 339
349 348 343 342 345 345 344 345 345 345 344 343 342 345 345 345 345 347 342 344 345 345 345 344 344 343 340 340 340 338 336 336 336 340 340 340 342 343 343 342 342 341 340
349 348 345 343 343 345 345 344 344 342 343 343 342 344 345 344 346 344 340 343 344 343 343 343 343 342 340 340 339 334 333 333 334 337 338 339 340 340 341 340 341 341 341
348 348 347 347 345 345 346 346 343 341 343 342 343 342 343 343 343 340 342 344 343 343 343 342 342 341 340 339 336 333 332 331 331 333 338 338 338 339 339 339 339 339 340
348 348 348 348 346 342 343 345 342 346 344 342 344 339 340 342 342 341 342 343 342 343 343 341 341 340 339 337 333 330 329 330 330 332 334 336 337 337 338 337 337 338 338
348 348 348 346 345 342 339 342 340 345 343 340 342 340 339 341 341 342 341 342 341 342 342 341 339 339 337 335 331 329 328 329 329 330 332 335 336 337 336 336 336 336 336
349 349 348 346 345 344 342 341 341 340 342 341 340 339 338 342 342 341 340 341 342 341 341 339 338 337 335 333 329 328 327 328 328 329 330 329 334 333 333 331 331 333 333
348 349 348 346 344 344 344 342 342 342 341 340 339 339 337 340 341 340 340 339 341 340 340 337 337 335 331 328 326 326 327 326 327 328 328 328 330 330 330 329 329 329 329
344 346 346 346 345 345 344 343 342 340 341 339 340 338 335 338 339 340 340 338 339 339 337 336 336 330 327 325 325 326 326 326 326 326 326 327 328 328 328 327 327 327 327
340 342 343 344 343 343 344 343 342 341 340 340 339 338 337 334 338 339 338 338 336 337 335 336 332 328 325 325 325 325 325 325 325 325 326 326 326 327 326 326 328 327 327
336 336 338 339 339 341 342 342 342 341 340 339 339 338 337 335 334 335 335 336 335 335 334 334 330 326 325 325 325 325 324 325 324 325 325 325 326 326 329 329 328 327 326
336 331 331 332 332 336 339 339 339 339 340 339 338 338 338 337 335 334 334 332 333 333 334 333 329 326 325 324 324 324 324 324 324 324 324 325 325 327 328 327 326 326 325
324 325 325 327 330 333 336 337 336 334 336 336 337 337 337 336 334 334 329 325 329 331 333 332 327 326 325 324 323 323 323 323 323 324 324 325 326 325 327 326 325 325 324
318 319 319 320 324 330 335 336 334 333 333 335 334 334 335 334 332 329 325 325 325 326 331 330 326 325 324 323 323 323 323 323 322 323 324 324 324 324 324 324 324 324 324
319 319 319 319 320 327 335 336 332 328 332 334 333 332 332 332 329 327 325 326 326 330 330 330 325 323 323 323 322 322 322 322 322 322 323 323 323 323 323 323 322 323 322
322 322 321 321 320 321 323 334 333 331 329 327 330 331 331 332 330 327 327 327 327 327 329 328 327 324 323 322 322 322 322 323 322 322 323 323 323 323 322 322 321 322 322
321 321 322 322 321 321 320 322 331 331 326 325 324 326 328 330 328 326 327 327 326 326 328 328 325 323 322 322 321 321 321 322 323 323 322 322 322 322 321 321 321 321 322
323 324 324 324 323 321 320 320 322 325 325 323 323 324 325 328 326 327 323 323 327 328 327 327 324 322 322 321 321 320 320 320 321 321 321 321 321 321 320 320 320 320 320
323 324 325 325 324 320 320 320 320 323 325 325 325 325 329 326 326 325 322 323 325 327 326 325 324 323 322 321 321 320 319 321 318 319 320 320 320 319 319 319 318 318 317
324 325 325 325 324 324 322 321 321 321 323 325 324 325 327 324 322 323 324 325 324 324 326 326 324 323 322 321 320 319 319 320 318 316 317 319 319 318 318 318 317 316 315
323 324 326 325 325 323 322 320 321 323 325 325 324 325 325 324 323 324 326 325 326 324 325 325 323 322 322 321 321 318 317 319 318 315 314 313 317 317 317 316 315 314 313
323 324 326 327 326 325 322 323 325 325 325 326 325 326 325 326 328 328 328 327 325 325 325 325 323 320 321 321 320 317 319 318 315 315 310 309 314 314 316 316 316 315 313

GFSSE_925_thetae_159.txt.gz
Theta_e
348 347 344 348 347 345 348 347 346 347 347 347 346 347 347 347 347 347 348 346 346 345 345 348 348 346 344 344 343 343 345 346 346 345 344 344 342 344 343 339 339 341 342
347 346 344 347 347 343 347 349 346 345 344 345 346 344 346 346 345 346 346 345 345 344 344 347 347 347 346 344 343 342 343 344 344 342 344 344 344 341 340 338 342 343 345
347 347 346 346 349 348 347 344 347 344 341 343 344 346 346 346 346 346 345 343 344 347 347 347 347 346 345 344 342 342 344 343 342 342 344 345 345 345 341 338 342 345 345
348 347 344 349 347 347 345 347 346 344 340 343 344 344 344 345 346 346 344 343 344 345 347 347 346 344 341 341 342 343 342 340 340 341 342 344 344 345 344 339 342 343 343
349 348 342 348 346 345 344 345 344 343 336 346 341 343 339 345 346 345 346 344 346 346 346 345 344 343 340 341 342 342 339 339 339 342 342 342 344 343 343 342 340 341 343
350 349 339 345 344 344 344 346 344 342 337 344 341 338 346 342 345 346 345 342 346 345 343 344 343 341 339 339 341 339 336 339 340 342 342 342 343 343 342 342 340 339 341
349 349 346 344 345 344 344 345 344 342 341 337 338 344 345 344 346 345 341 345 344 344 343 343 343 341 339 339 339 335 335 337 339 340 341 341 341 342 341 341 341 341 339
348 348 348 345 344 344 344 345 344 340 341 339 338 342 342 343 343 344 342 344 344 344 343 343 343 340 339 338 337 332 332 334 338 339 339 339 338 340 340 340 340 340 339
348 347 347 348 345 342 342 343 344 339 343 341 338 341 342 341 341 340 340 343 343 342 342 342 341 338 339 338 335 330 330 331 336 337 338 338 337 338 339 338 339 339 339
348 347 347 347 346 344 342 342 343 340 343 342 338 336 341 341 340 339 341 343 341 342 341 341 339 338 338 336 330 329 329 330 334 336 336 337 337 337 337 337 336 336 336
348 348 348 347 346 344 341 341 341 341 342 341 340 336 340 343 344 342 340 340 342 340 340 340 339 337 336 333 329 328 329 330 332 333 334 333 335 335 333 334 335 334 334
348 348 348 347 346 345 343 341 340 340 340 341 340 341 336 340 342 342 340 339 341 340 340 340 339 336 332 331 329 327 328 329 330 332 332 331 330 331 331 330 330 330 329
346 347 348 346 346 345 344 343 342 340 340 340 340 339 338 337 339 341 340 340 341 340 340 339 338 334 330 328 327 327 327 327 328 329 327 327 329 328 328 327 327 328 328
341 345 347 346 346 345 344 344 343 342 340 340 339 339 338 335 334 337 339 338 340 339 339 339 335 331 327 326 326 325 326 326 327 326 327 326 326 327 329 329 329 329 328
336 341 344 344 344 344 344 344 342 342 340 339 339 339 339 337 333 335 335 335 335 338 337 336 333 328 326 325 325 325 325 325 325 325 325 326 327 329 330 329 329 328 326
334 337 340 340 340 339 340 342 341 341 340 339 339 339 339 338 335 335 334 334 334 334 335 335 331 326 325 325 324 324 325 324 324 324 326 325 328 330 329 329 328 326 324
325 335 334 335 335 335 337 338 338 335 337 337 338 338 338 337 337 334 334 333 333 333 334 333 328 325 324 324 324 324 324 324 323 323 324 327 327 327 328 327 326 325 324
325 330 327 328 331 334 336 336 334 332 331 330 333 331 334 335 336 334 332 331 331 332 332 332 328 325 324 323 323 323 324 324 323 323 325 325 325 324 324 325 325 324 323
318 318 318 318 319 323 334 336 334 336 337 333 336 330 330 332 332 334 330 326 327 329 330 330 327 325 323 322 322 323 323 323 323 323 324 324 324 324 324 323 323 323 323
319 319 319 319 319 320 323 336 335 332 331 335 331 327 329 330 330 332 326 325 326 326 328 330 325 324 322 321 321 322 322 322 322 322 323 323 322 322 322 322 322 322 322
321 321 321 321 321 321 320 325 329 330 329 332 327 325 327 326 327 329 328 325 326 328 327 326 324 322 322 321 321 321 321 321 321 323 323 323 323 322 321 321 321 321 322
321 322 322 322 322 322 320 319 323 326 331 327 325 324 326 327 327 328 328 326 327 326 326 326 324 323 322 322 321 321 323 320 321 322 322 322 322 322 321 321 321 321 321
323 323 324 324 324 323 319 320 322 324 325 326 325 324 324 325 325 326 326 326 322 322 326 325 324 323 321 321 321 321 322 321 320 319 320 320 321 320 320 320 320 319 319
323 324 324 324 324 323 319 319 320 321 324 323 324 324 324 324 325 326 325 323 321 322 325 325 323 323 322 321 321 319 319 320 320 321 317 318 319 318 319 319 318 317 316
323 324 325 325 324 323 324 323 321 321 321 322 324 324 325 325 326 326 323 321 322 324 326 325 323 323 322 322 321 318 319 318 318 319 320 317 316 317 318 317 317 316 315
323 324 325 325 325 324 321 320 322 322 323 324 323 328 328 326 325 322 322 323 324 324 324 324 325 323 323 322 321 320 318 319 317 318 318 317 318 315 316 316 316 315 313